Torna al catalogo

STARLINK-1335

AttivoComunicazioniVLEO
NORAD 45581·PAYLOAD·🇺🇸 United States

Lanciato Apr 22, 2020 da Cape Canaveral Space Force Station

Loading…

Prossimi Passaggi (prossime 24 ore)

TLE

AggiornatoSource: CelesTrak SupGP

Epoca: Sep 14, 2026, 21:20 UTC

1 45581C 20025BC  26257.88937500  .00090796  00000+0  18197-2 0  2579
2 45581  53.1492 266.6692 0005535  57.4344 246.0853 15.46068821    11

Traccia STARLINK-1335 in tempo reale con AllMySat

Download on the App Store